Flag for Montserrat Weather past 2 weeks in Brades, Montserrat

Now
81 °F

Passing clouds.


Feels Like: 84 °F
Forecast: 80 / 82 °F
Wind: 12 mph from East

Location: Vc Bird International Antigua Airport

Current Time: Dec 20, 2014 at 10:26:03 AM

Latest Report: Dec 20, 2014 at 10:00 AM


Visibility: N/A

Pressure: 30.04 "Hg

Humidity: 70%

Dew point: 70 °F

Location of BradesLocation

Historic Weather in Brades — Graph

°F

Brades temperature yesterday

Maximum temperature yesterday: 84 °F (at 12:00 PM)
Minimum temperature yesterday: 77 °F (at 12:00 AM)
Average temperature yesterday: 79 °F

Past Weeks' High & Low Weather Summary

 TemperatureHumidityPressure
High84 °F (Dec 7, 1:00 PM)94% (Dec 5, 5:00 PM)30.04 "Hg (Dec 5, 5:00 PM)
Low70 °F (Dec 8, 1:00 AM)58% (Dec 7, 3:00 PM)29.80 "Hg (Dec 6, 2:00 PM)
Average78 °F79%29.94 "Hg
* Reported Dec 5 9:00 AM — Dec 20 9:00 AM, Brades, Weather by CustomWeather, © 2014

Note: Actual official high and low records may vary slightly from our data, if they occured in-between our weather recording intervals... More about our weather records

Advertising

Brades weather history for previous 24 hours

 ConditionsComfort  
Time TempWeatherWind HumidityBarometerVisibility
9:00 AM
Dec 20
81 °FPassing clouds.10 mph66%30.04 "HgN/A
8:00 AM79 °FPassing clouds.10 mph70%30.01 "HgN/A
7:00 AM77 °FPassing clouds.9 mph69%29.98 "HgN/A
6:00 AM77 °FPassing clouds.12 mph69%29.95 "HgN/A
5:00 AM77 °FPassing clouds.12 mph69%29.95 "HgN/A
4:00 AM77 °FPassing clouds.12 mph74%29.95 "HgN/A
3:00 AM77 °FPassing clouds.10 mph74%29.92 "HgN/A
2:00 AM77 °FPassing clouds.9 mph79%29.95 "HgN/A
1:00 AM77 °FPassing clouds.10 mph74%29.98 "HgN/A
12:00 AM77 °FPassing clouds.9 mph79%29.98 "HgN/A
11:00 PM
Dec 19
79 °FPassing clouds.10 mph74%30.01 "HgN/A
10:00 PM79 °FPassing clouds.10 mph74%30.01 "HgN/A
9:00 PM77 °FPassing clouds.9 mph79%29.98 "HgN/A
8:00 PM79 °FPassing clouds.10 mph74%29.98 "HgN/A
7:00 PM79 °FPassing clouds.9 mph70%29.98 "HgN/A
6:00 PM79 °FPassing clouds.9 mph74%29.95 "HgN/A
5:00 PM79 °FScattered clouds.10 mph74%29.95 "HgN/A
4:00 PM79 °FScattered clouds.9 mph79%29.92 "HgN/A
3:00 PM79 °FScattered clouds.9 mph79%29.92 "HgN/A
2:00 PM81 °FScattered clouds.12 mph74%29.92 "HgN/A
1:00 PM82 °FScattered clouds.12 mph70%29.95 "HgN/A
12:00 PM84 °FPassing clouds.10 mph62%29.98 "HgN/A
11:00 AM82 °FScattered clouds.12 mph66%30.01 "HgN/A
10:00 AM81 °FPartly sunny.10 mph70%29.98 "HgN/A
Weather by CustomWeather, © 2014

See weather overviewHow to use our weather pages